Tracking 17636 objects as of 30-April-2016
HD Live streaming from Space Station
objects crossing your sky now

EXPRESS 3A

Track EXPRESS 3A now!
EXPRESS 3A is classified as:


NORAD ID: 26378
Int'l Code: 2000-031A
Perigee: 36,196.3 km
Apogee: 36,244.4 km
Inclination: 6.4 °
Period: 1,457.9 minutes
Semi major axis: 42591 km
RCS: 37.9323 m2 (large)
Launch date: June 24, 2000
Source: Commonwealth of Independent States (former USSR) (CIS)
Launch site: TYURATAM MISSILE AND SPACE COMPLEX (TTMTR)

Data transmission, TV and radio broadcasting, communications, Internet, video-conference, and others; digital format throughout Russia.
Your satellite tracking list
Your tracking list is empty





NASA's NSSDC Master Catalog

Two Line Element Set (TLE):
1 26378U 00031A   16120.62926296 -.00000198 +00000-0 +00000-0 0  9991
2 26378 006.4014 055.5655 0005654 147.2020 005.6272 00.98769014057671
Source of the keplerian elements: AFSPC

N2YO: 297